CAPE
2497 2363 2061 1744 1494 1021 1639 1814 1607 1513 1502 1228 1874 1778 1678 2011 2046 2727 2315 2856 3361 3344 3458 4092 3988 3963 3764 3940 3791 3625 3820 3203 3323 3516 3350 3317 3524 2888 2746 2475 3386 3386
2862 2639 2370 2058 1798 1504 1978 2154 1963 1701 1968 1707 1374 2134 2138 2236 1877 2478 2585 2873 3333 3231 3633 3588 4083 4083 4029 3760 3982 3934 4120 3920 3806 2760 3175 3472 3575 2968 2514 2806 2813 4030
2816 2996 2739 2231 1799 1814 1044 1986 2386 2195 2144 1656 1441 2254 2201 1966 2115 2109 2874 2696 2824 2740 3715 3594 3659 4045 3986 4003 4107 3831 3820 4151 3772 3116 3291 3308 3438 3323 3102 2085 2398 2638
2954 2899 2482 1985 1817 1768 1234 1499 2375 2354 1797 1834 1207 1011 1559 1166 1668 2372 2603 3170 2951 3192 3411 3245 3104 3284 3865 3902 3863 3621 3688 4084 3667 3945 3648 3686 3656 3204 3154 3123 2577 2533
2664 2756 2694 2500 2374 2202 1692 1431 1374 2148 1718 1769 1489 995 1154 2125 2169 2402 2468 2853 3102 3089 3483 3341 3328 3319 3926 3948 3884 3677 3470 3609 3386 4078 4004 3893 3991 3739 3174 3217 3246 2936
2587 2638 2815 2894 2826 2810 2278 1731 1563 1580 1797 1437 1853 1517 1195 1696 2704 2144 2572 2522 2567 2311 2170 2643 3105 2909 3532 3942 3962 3756 3402 2940 2928 3804 3822 3807 3482 3325 2994 3179 3390 3151
2383 2691 2573 2626 2555 2816 2647 2136 1845 1772 1736 1570 1752 1782 1422 1224 1993 2194 2696 2844 2367 2214 1926 2025 2836 2987 2952 3425 3739 3890 3904 3620 3230 4021 3663 3927 4073 3964 3080 2954 3449 3370
2385 2342 2478 2710 2465 2434 2586 2531 2075 2008 2196 2094 1626 1986 1887 1266 1479 1898 2614 2867 2848 2726 2292 2345 3012 3436 3085 3181 3635 3814 3764 3298 3167 3786 4070 3756 4011 4140 4059 3576 3398 3640
2531 2497 2562 2496 2206 2190 2088 2174 2306 1956 2116 2192 1457 1293 1994 1779 1736 1480 2224 2987 2963 3171 2944 2576 3176 3301 3015 2926 3366 3705 3702 3229 2800 2997 3467 3630 3865 4148 3912 3738 3642 3632
2597 2552 2310 2174 2229 2115 2058 2345 2127 1739 2050 2015 1586 1192 1624 2133 2137 1807 2465 3160 3241 3411 3449 2709 3228 3054 2854 2990 3318 3657 3665 3660 3379 3197 3066 3126 3277 3700 3751 3848 3810 3786
2260 2298 2282 2296 2245 1887 2008 1886 1954 1990 1871 1629 1577 1239 1570 1874 2477 2433 2584 3087 3047 3186 3598 3188 2967 3042 2939 2669 2958 3264 3541 3548 3565 3662 3520 3280 3186 3524 4060 3861 3744 3547
2567 2384 2322 2310 2120 1981 1662 1693 1730 2100 2145 2027 1992 1674 1748 1790 2253 2583 2714 2989 2756 2793 3108 3413 3292 3214 3221 2993 2662 2728 3276 3367 3664 3760 3407 3510 3596 3643 3724 3851 3780 3707
2493 2576 2616 2237 2414 2074 1701 1793 1929 2058 2003 1933 1992 1822 1539 1432 1767 2331 2752 3180 3044 2851 2762 3239 3524 3444 3539 3543 3154 2883 3060 3170 3150 3492 3396 3326 3266 3245 3406 3629 3647 3521
2836 2464 2328 2770 2573 2319 2210 2099 1912 1926 2204 2384 2282 2070 1446 1465 1626 2050 2678 2994 3311 3144 3017 3190 3629 3617 3751 3872 3624 3261 3141 3127 3118 3136 3155 3295 3059 3120 3158 3191 3577 3534
2945 2863 2894 2968 2675 2697 2480 2273 2122 2106 2250 2569 2692 2232 1839 1490 1541 1852 2294 2638 3168 3364 3283 3185 3372 3594 3580 3838 3742 3424 3011 2872 3103 3018 2948 2966 3161 2954 3122 3238 3161 3112
3379 3108 2940 3138 3049 2970 2759 2481 2407 2337 2013 2441 2837 2587 2456 2098 1551 2171 2550 2705 3030 3515 3473 3208 3136 3347 3372 3343 3374 3388 3063 2269 2817 3068 2835 2748 3145 3100 3014 3178 2946 2773
3494 3250 3220 3435 3320 3250 3016 2814 2569 2345 2255 2370 2880 2796 2600 2659 2145 2095 2413 2669 2722 2924 3260 3069 2890 2830 3295 3314 3322 3218 3021 2640 2450 3118 3308 3190 2913 3159 3150 2813 2707 2838
3576 3594 3561 3555 3502 3429 3208 3080 2830 2709 2540 2553 2776 2887 2946 2873 2601 2270 2315 2702 2795 2860 3010 3093 3357 3091 3224 3235 3289 3332 3144 2970 2501 2602 2984 3198 3096 2657 2902 2849 2650 2326
3822 3852 3788 3642 3624 3610 3476 3196 2995 3019 2833 2666 2594 3059 3312 3224 2834 2570 2410 2477 2858 3085 3126 3138 3287 2700 2748 3112 3171 3252 3185 3018 2697 2232 2009 2520 2903 2969 2597 2593 2604 2530
4053 4070 4008 3831 3806 3820 3732 3410 3057 3138 2869 2708 2571 3014 3456 3302 3176 2725 2652 2644 2713 3298 3240 3205 3302 2890 2438 2763 3058 3153 3178 3056 3203 2649 2251 1996 2554 3149 3016 2741 2872 2928
4378 4281 4284 4148 4004 3990 3926 3651 3247 3211 3228 2601 2362 2669 3393 3531 3070 2787 2805 2809 2575 3047 3526 3088 2994 2773 2511 2424 2802 3041 3077 3003 3174 2826 2475 2377 2538 2991 3357 3084 2978 3089
4590 4501 4528 4425 4243 4107 4061 3880 3537 3386 3396 2848 2387 2246 2743 3463 3517 2987 3070 3034 2742 2502 2464 2956 2467 2537 2651 2512 2457 2762 2889 2858 2896 3156 2868 2733 2956 3183 3280 3571 3503 3365
4652 4577 4656 4602 4475 4244 4175 4058 3804 3566 3543 3171 2731 2447 2471 2880 3324 3027 3178 3044 2822 2764 2550 2621 2704 2570 2602 2608 2609 2507 2567 2609 2920 3097 3092 2892 2873 3374 3960 4235 4128 3892
4643 4609 4798 4767 4612 4420 4341 4209 4048 3616 3400 3272 2987 2580 2447 2699 3049 3496 3441 3126 2952 2926 2838 2882 2834 3543 2626 2512 2674 2647 2634 2743 2933 3204 3219 3075 3081 3123 3272 3644 3915 4259
5002 4863 4941 4856 4793 4660 4491 4511 4197 3812 3385 3479 2892 2749 2893 3311 3596 3485 3244 3109 2858 2852 2948 3077 2772 3741 2490 2497 2506 2600 2645 2786 3174 3348 3331 3335 3280 3318 3344 3233 3316 3553
4821 5156 5203 4953 5124 5028 4962 5053 4736 3867 3527 3271 3048 2708 2788 3000 3404 3600 3398 3234 3017 3084 3378 3349 3046 3315 2838 2454 2495 2519 2611 2820 3512 3482 3371 3515 3549 3673 3760 3622 3466 3482
Wind_Speed
9 7 5 6 7 7 8 6 6 5 5 4 3 3 2 4 3 5 6 6 6 5 5 6 7 7 7 8 8 7 4 4 4 6 8 6 7 7 6 5 5 3
9 8 8 8 9 9 9 8 7 6 5 5 4 4 4 5 3 5 7 7 8 7 7 7 8 8 8 8 9 7 6 4 4 5 5 7 7 6 7 6 5 3
11 9 8 7 8 8 6 8 8 8 7 5 5 6 5 4 6 5 7 8 9 8 8 8 8 9 8 7 7 6 6 4 5 7 6 9 9 10 10 10 7 7
13 9 8 8 9 9 8 10 9 9 9 7 6 6 6 5 7 7 7 8 9 8 9 8 8 8 7 6 5 4 5 6 7 8 9 10 11 12 13 12 11 8
15 11 10 10 11 11 10 9 8 9 8 9 7 7 7 9 9 9 8 8 9 8 8 9 7 6 5 3 3 4 7 7 8 9 10 10 11 12 13 13 12 12
17 14 13 12 13 13 11 9 10 10 8 8 8 8 7 8 11 10 10 8 7 7 7 7 6 3 3 2 4 6 8 8 9 9 10 11 12 12 13 13 13 13
19 17 13 13 13 13 12 11 11 11 10 10 11 8 8 8 10 11 10 8 7 5 4 4 2 1 2 2 3 5 7 8 8 8 10 10 11 12 13 12 12 12
21 19 16 15 14 14 13 12 12 12 12 12 10 9 9 10 10 10 10 9 6 5 2 1 1 1 1 2 2 4 6 7 9 7 9 10 10 11 12 11 9 10
24 22 19 16 15 15 13 13 13 12 13 12 10 10 11 11 13 9 10 9 7 6 3 3 3 2 1 1 1 3 5 7 7 8 8 9 11 12 12 11 10 9
24 24 21 19 16 16 16 15 15 14 13 12 11 10 11 13 14 11 10 10 8 6 5 4 5 4 3 1 2 3 4 5 5 6 8 9 10 11 12 12 12 11
22 23 22 20 18 18 17 17 17 16 16 13 13 11 12 14 14 13 11 10 9 7 7 5 5 5 4 3 2 3 5 6 6 5 7 9 10 9 10 11 11 10
21 21 21 20 19 19 19 19 18 18 18 16 15 13 14 15 15 14 13 11 10 9 8 8 7 7 6 5 4 4 6 7 7 7 7 9 10 10 9 9 9 10
21 20 20 20 20 19 21 21 19 19 19 18 17 16 14 15 15 15 15 13 12 11 9 10 9 8 8 7 5 6 8 8 8 10 9 9 9 10 10 10 10 9
20 21 20 20 21 21 22 22 21 20 20 21 20 17 15 15 16 17 17 16 15 13 11 11 10 10 10 9 8 8 10 10 9 9 11 10 10 10 10 9 9 10
20 21 20 20 20 21 21 22 22 22 22 22 22 19 17 15 17 19 18 17 17 16 13 12 11 11 11 11 11 10 10 11 11 10 10 11 11 11 10 9 8 9
20 20 21 21 21 20 19 20 23 24 23 22 23 21 20 18 18 20 20 19 19 19 16 13 13 13 12 14 14 13 12 11 11 11 10 10 12 11 10 10 10 9
18 18 20 21 22 21 19 19 20 24 24 24 24 23 22 21 19 19 20 20 20 19 18 15 13 13 16 17 17 16 14 12 12 13 12 11 11 11 10 9 9 9
16 18 18 19 20 20 21 19 18 21 23 24 24 24 24 23 20 19 20 22 21 20 19 17 15 15 21 20 19 18 16 14 12 13 13 13 12 11 10 9 8 8
16 17 17 17 18 20 20 20 18 18 20 22 22 25 26 25 22 20 20 21 22 22 20 19 17 17 22 22 21 20 17 15 13 13 13 14 13 12 10 10 9 8
17 17 17 17 17 18 19 19 18 17 18 21 22 25 26 25 23 22 21 21 21 23 22 21 18 21 24 24 23 21 19 16 13 14 13 13 14 13 11 10 11 10
16 17 18 18 18 17 17 17 17 16 17 19 20 21 24 25 24 23 22 21 21 22 24 22 18 24 26 25 24 23 21 18 14 13 14 13 13 13 13 12 11 11
15 16 17 19 19 18 16 16 16 17 17 18 19 19 21 23 24 23 22 21 22 21 21 22 20 28 26 26 26 24 23 20 16 14 13 13 14 13 14 14 13 12
15 15 16 18 20 19 17 16 17 17 17 18 18 19 20 21 22 22 23 21 22 22 19 21 22 27 27 27 27 26 25 21 17 15 13 11 12 14 15 15 14 13
16 15 15 17 18 19 18 16 16 16 17 17 17 17 18 20 21 21 21 20 21 21 21 21 21 28 27 26 27 29 27 22 18 16 14 13 13 13 14 13 12 11
18 16 15 16 16 18 20 19 17 17 17 18 17 16 17 20 21 21 20 19 19 19 21 22 19 26 26 27 26 28 25 20 18 16 14 15 15 15 15 13 12 11
18 17 16 16 16 18 20 20 19 18 18 18 17 16 17 18 20 20 19 18 18 18 20 21 18 22 25 25 27 26 24 20 17 15 14 15 17 17 17 16 15 15
Wind_Direction
259 247 237 227 221 218 223 226 223 224 219 227 236 236 224 228 210 256 288 279 295 290 284 280 288 287 298 296 297 299 293 316 332 325 342 358 360 15 20 19 353 28
262 253 235 231 224 222 218 225 220 219 223 213 217 230 232 232 267 230 265 276 284 290 285 296 295 299 302 303 302 317 325 330 354 12 6 15 33 50 48 39 26 341
256 249 252 253 243 240 237 224 220 216 216 207 202 217 241 241 254 255 248 276 284 297 300 300 304 308 312 308 312 332 352 12 34 60 44 54 60 56 64 66 44 28
258 252 249 255 249 248 236 224 224 216 211 210 198 203 223 241 248 269 252 271 278 290 303 309 315 320 323 330 335 9 47 54 69 72 70 65 60 63 61 60 67 59
266 253 239 240 244 247 245 237 241 231 216 214 213 206 210 221 253 260 266 267 276 296 301 317 321 329 330 355 27 77 85 83 77 67 67 66 58 53 59 61 59 58
259 254 242 240 244 250 255 254 249 245 235 227 227 221 218 224 243 259 270 281 291 306 322 322 333 356 4 37 79 89 93 85 67 57 55 55 58 51 52 48 46 48
268 263 262 246 253 252 257 256 252 251 252 236 234 232 233 243 241 254 267 277 298 306 333 315 318 19 91 103 87 84 89 82 80 45 39 43 47 57 56 45 39 39
270 267 263 253 259 257 258 258 256 253 254 250 249 248 249 258 259 255 261 276 291 297 296 280 272 249 72 139 76 78 68 67 69 63 28 33 38 40 47 53 41 33
268 267 265 267 271 265 272 271 265 260 254 257 254 256 255 257 266 268 260 270 277 271 257 195 223 232 211 195 60 37 44 55 44 40 35 25 26 30 31 33 39 35
269 268 276 275 275 269 277 277 272 269 262 260 259 252 260 257 266 275 268 269 277 268 260 211 215 231 240 263 329 356 11 29 33 14 18 24 27 24 25 22 22 25
281 277 277 279 278 272 280 281 278 276 269 270 267 259 260 260 258 268 267 269 277 269 254 247 227 242 256 281 291 315 338 352 5 5 360 6 17 24 24 19 16 17
290 284 286 285 281 276 279 280 279 278 277 272 272 266 259 265 264 263 262 266 266 267 256 250 241 242 256 270 302 306 312 331 336 348 358 355 360 10 22 24 19 10
300 295 289 287 277 270 267 271 276 280 280 280 275 271 270 273 275 268 259 261 264 263 262 254 252 250 253 267 277 286 301 315 327 334 345 350 354 3 13 19 23 16
301 299 296 286 276 264 259 266 270 272 273 273 273 277 280 277 281 278 264 262 265 266 262 259 260 258 259 267 274 280 291 304 316 322 335 340 344 353 7 17 14 15
289 291 289 286 284 275 268 264 265 264 265 269 272 274 275 274 274 280 275 270 269 269 268 267 270 268 263 268 276 282 282 297 311 320 326 330 336 348 356 3 13 14
291 287 286 288 290 289 280 269 264 263 266 267 273 274 268 266 264 270 279 277 273 275 273 272 271 269 276 297 292 282 285 291 298 310 320 324 329 337 349 353 4 15
294 290 287 289 292 292 288 279 272 267 262 262 266 272 268 266 264 268 277 278 278 279 282 279 279 278 296 296 300 305 292 287 291 299 312 322 327 328 337 346 347 351
301 297 293 291 288 292 293 289 279 272 268 264 265 273 269 266 269 268 269 276 277 280 282 282 278 284 297 301 303 306 300 289 289 291 303 316 325 330 332 335 341 339
298 301 301 296 294 294 292 292 289 283 279 275 272 268 269 268 267 269 268 270 276 278 280 280 278 288 295 303 304 305 309 296 285 288 297 309 318 328 327 325 323 321
295 302 306 303 294 291 290 296 298 293 290 282 275 269 270 273 271 269 267 267 269 276 277 275 276 281 296 302 305 308 309 303 283 286 292 299 309 316 318 319 318 316
290 298 304 300 297 294 293 298 302 294 292 286 283 277 273 273 274 271 269 269 271 270 273 279 277 285 293 299 304 308 311 296 285 281 277 286 294 298 305 313 314 316
281 290 296 299 300 300 301 303 301 298 294 287 283 283 276 272 271 272 273 273 272 272 271 277 277 286 293 297 302 304 308 281 280 278 270 266 272 281 291 301 310 312
277 284 291 297 301 304 308 309 304 299 292 283 285 286 285 283 279 278 269 273 274 272 273 270 271 281 293 298 299 303 287 276 289 277 273 270 258 258 264 279 294 303
274 277 283 292 298 308 307 304 297 292 292 286 287 288 291 290 284 278 275 275 276 277 278 272 270 276 293 294 299 297 295 284 285 278 271 265 259 262 267 273 282 305
270 271 277 288 298 301 298 298 301 292 286 280 285 286 282 277 277 280 280 277 281 282 284 278 274 275 291 293 295 295 295 283 279 272 264 259 263 269 280 285 292 302
269 266 272 282 288 291 291 292 287 289 290 289 286 282 277 277 279 283 289 284 281 281 277 279 282 271 283 296 296 299 303 283 271 266 259 261 265 273 281 290 299 301